Погода в Чебеньках

Россия / Оренбургская область     51°56′15″N   55°42′14″E
темп.,
°C
ветер,
м/с
пор.,
м/с
влажн.,
%
обл.,
%
осадки,
мм/ч
давл.,
гПа
погр.,
м
17 мая, вт
вт1723:00+10юз368599 1.1 100499
02:00+10юз378865 0.7 1004143
05:00+8юз389398 1.3 1004191
08:00+11юз59825 0.4 1005432
11:00+15зюз78639 1.1 10051394
14:00+16зюз8105218 1.2 10041934
17:00+15зюз9115913 1.9 10051584
20:00+14зюз48609 0.3 1006226
18 мая, ср
ср1823:00+10ююз2270100 0.3 100725
02:00+10ю3472100 0.0 100695
05:00+9ю4983100 0.7 1005384
08:00+11юз6983100 0.5 1005649
11:00+13зюз8106059 0.9 10051453
14:00+16зюз81047100 0.8 10052537
17:00+14зюз9115340 1.6 10062027
20:00+12зюз611675 0.4 1007810
19 мая, чт
чт1923:00+9зюз51081100 0.6 1008354
02:00+7зюз510915 0.3 1009306
05:00+6юз410945 0.3 1010270
08:00+9зюз5883100 0.0 1012474
11:00+14зюз696195 0.2 10121443
14:00+14зюз7105899 0.3 10111685
17:00+13юз696846 0.4 1012835
20:00+12юз5978100 0.4 1011382
20 мая, пт
пт2023:00+10юз3892100 0.8 1011252
02:00+9юз2294100 0.2 101039
05:00+9ю1190100 1.2 100824
08:00+10зюз2390100 2.3 1007124
11:00+10сз3482100 4.5 1007424
14:00+13зсз1359100 0.6 10061394
17:00+10сз5976100 1.3 1006769
20:00+9зсз69623 0.0 1007596
21 мая, сб
сб2123:00+6зсз498090 0.1 1008324
02:00+4зсз49895 0.0 1007248
05:00+3зсз499412 0.0 1008288
08:00+5сз6884100 0.1 1008777
11:00+6сз8972100 0.2 10091164
14:00+8сз8106893 0.3 10091394
17:00+9зсз5968100 0.6 10091008
20:00+9зсз366814 0.3 1009194